Location: *
(46.1006°N, 1.8394°E)
Time: 09:12:41
(UTC+00:00)

GEOS 3 Rocket - Pass Details

Date: 20 September 2019
Orbit: 790 x 829 km, 115.0° (Epoch: 18 October)

Event Time Altitude Azimuth Distance (km) Brightness Sun altitude
Exits shadow 18:37:14 - 126° (SE) 2,634 5.7 -8.1°
Reaches altitude 10° 18:37:57 10° 125° (SE) 2,350 5.5 -8.2°
Maximum altitude 18:42:57 62° 46° (NE) 892 3.7 -9.1°
Drops below altitude 10° 18:48:01 10° 327° (NNW) 2,369 6.7 -9.9°
Sets 18:50:19 0° 324° (NW) 3,306 7.6 -10.3°
